Time,TemperatureF,DewpointF,PressureIn,WindDirection,WindDirectionDegrees,WindSpeedMPH,WindSpeedGustMPH,Humidity,HourlyPrecipIn,Conditions,Clouds,dailyrainin,SoftwareType,DateUTC
2013-04-16 00:00:00,50.7,39.4,29.87,West,279,2.0,8.0,65,0.00,,,-99.99,Weather View 32 v60,2013-04-16 04:00:00,
2013-04-16 00:05:00,50.5,39.2,29.87,West,273,4.0,8.0,65,0.00,,,-99.99,Weather View 32 v60,2013-04-16 04:05:00,
2013-04-16 00:10:00,50.2,39.2,29.87,West,279,5.0,8.0,66,0.00,,,-99.99,Weather View 32 v60,2013-04-16 04:10:00,
2013-04-16 00:15:00,50.0,39.1,29.87,West,268,5.0,8.0,66,0.00,,,-99.99,Weather View 32 v60,2013-04-16 04:15:00,
2013-04-16 00:20:00,49.8,39.3,29.87,West,273,8.0,8.0,67,0.00,,,-99.99,Weather View 32 v60,2013-04-16 04:20:00,
2013-04-16 00:25:00,49.5,39.3,29.87,WNW,299,6.0,8.0,68,0.00,,,-99.99,Weather View 32 v60,2013-04-16 04:25:00,
2013-04-16 00:30:00,49.3,39.5,29.87,NW,307,6.0,8.0,69,0.00,,,-99.99,Weather View 32 v60,2013-04-16 04:30:00,
2013-04-16 00:35:00,49.1,39.4,29.87,WNW,288,4.0,8.0,69,0.00,,,-99.99,Weather View 32 v60,2013-04-16 04:35:00,
2013-04-16 00:37:00,49.1,39.4,29.87,WNW,288,4.0,8.0,69,0.00,,,-99.99,Weather View 32 v60,2013-04-16 04:37:00,
2013-04-16 00:45:00,48.9,39.9,29.87,WNW,293,0.0,8.0,71,0.00,,,-99.99,Weather View 32 v60,2013-04-16 04:45:00,
2013-04-16 00:50:00,48.9,40.3,29.87,WNW,286,0.0,8.0,72,0.00,,,-99.99,Weather View 32 v60,2013-04-16 04:50:00,
2013-04-16 00:55:00,48.9,40.3,29.87,West,275,4.0,8.0,72,0.00,,,-99.99,Weather View 32 v60,2013-04-16 04:55:00,
2013-04-16 01:00:00,48.7,40.5,29.87,WSW,255,0.0,8.0,73,0.00,,,-99.99,Weather View 32 v60,2013-04-16 05:00:00,
2013-04-16 01:05:00,48.7,40.5,29.87,WSW,250,0.0,8.0,73,0.00,,,-99.99,Weather View 32 v60,2013-04-16 05:05:00,
2013-04-16 01:10:00,48.7,40.8,29.87,SW,236,0.0,8.0,74,0.00,,,-99.99,Weather View 32 v60,2013-04-16 05:10:00,
2013-04-16 01:15:00,48.7,40.8,29.87,SW,214,3.0,8.0,74,0.00,,,-99.99,Weather View 32 v60,2013-04-16 05:15:00,
2013-04-16 01:20:00,48.7,40.8,29.87,WNW,294,8.0,9.0,74,0.00,,,-99.99,Weather View 32 v60,2013-04-16 05:20:00,
2013-04-16 01:25:00,48.4,40.8,29.87,West,271,6.0,9.0,75,0.00,,,-99.99,Weather View 32 v60,2013-04-16 05:25:00,
2013-04-16 01:30:00,48.4,40.8,29.87,WSW,246,4.0,9.0,75,0.00,,,-99.99,Weather View 32 v60,2013-04-16 05:30:00,
2013-04-16 01:35:00,48.2,40.6,29.87,West,279,5.0,9.0,75,0.00,,,-99.99,Weather View 32 v60,2013-04-16 05:35:00,
2013-04-16 01:40:00,48.0,40.8,29.87,WSW,245,5.0,9.0,76,0.00,,,-99.99,Weather View 32 v60,2013-04-16 05:40:00,
2013-04-16 01:45:00,48.0,40.8,29.87,West,279,0.0,9.0,76,0.00,,,-99.99,Weather View 32 v60,2013-04-16 05:45:00,
2013-04-16 01:50:00,47.8,40.6,29.87,West,264,4.0,9.0,76,0.00,,,-99.99,Weather View 32 v60,2013-04-16 05:50:00,
2013-04-16 01:55:00,47.7,40.5,29.87,WSW,257,5.0,9.0,76,0.00,,,-99.99,Weather View 32 v60,2013-04-16 05:55:00,
2013-04-16 02:05:00,47.7,40.5,29.87,WSW,246,6.0,9.0,76,0.00,,,-99.99,Weather View 32 v60,2013-04-16 06:05:00,
2013-04-16 02:10:00,47.5,40.6,29.87,West,269,4.0,9.0,77,0.00,,,-99.99,Weather View 32 v60,2013-04-16 06:10:00,
2013-04-16 02:20:00,47.5,40.6,29.87,West,273,6.0,9.0,77,0.00,,,-99.99,Weather View 32 v60,2013-04-16 06:20:00,
2013-04-16 02:25:00,47.3,40.8,29.87,West,275,5.0,8.0,78,0.00,,,-99.99,Weather View 32 v60,2013-04-16 06:25:00,
2013-04-16 02:30:00,47.3,41.1,29.87,West,273,7.0,10.0,79,0.00,,,-99.99,Weather View 32 v60,2013-04-16 06:30:00,
2013-04-16 02:35:00,47.3,41.1,29.87,West,259,4.0,10.0,79,0.00,,,-99.99,Weather View 32 v60,2013-04-16 06:35:00,
2013-04-16 02:40:00,47.3,41.1,29.87,West,279,5.0,10.0,79,0.00,,,-99.99,Weather View 32 v60,2013-04-16 06:40:00,
2013-04-16 02:45:00,47.1,41.3,29.87,WNW,285,6.0,10.0,80,0.00,,,-99.99,Weather View 32 v60,2013-04-16 06:45:00,
2013-04-16 02:50:00,47.1,41.3,29.87,WNW,294,3.0,10.0,80,0.00,,,-99.99,Weather View 32 v60,2013-04-16 06:50:00,
2013-04-16 02:55:00,47.1,41.3,29.87,WSW,243,3.0,10.0,80,0.00,,,-99.99,Weather View 32 v60,2013-04-16 06:55:00,
2013-04-16 03:00:00,47.1,41.3,29.87,West,264,4.0,10.0,80,0.00,,,-99.99,Weather View 32 v60,2013-04-16 07:00:00,
2013-04-16 03:05:00,47.1,41.3,29.87,WNW,297,5.0,10.0,80,0.00,,,-99.99,Weather View 32 v60,2013-04-16 07:05:00,
2013-04-16 03:10:00,46.9,41.1,29.87,WNW,283,5.0,10.0,80,0.00,,,-99.99,Weather View 32 v60,2013-04-16 07:10:00,
2013-04-16 03:15:00,46.9,41.4,29.87,West,268,3.0,10.0,81,0.00,,,-99.99,Weather View 32 v60,2013-04-16 07:15:00,
2013-04-16 03:20:00,46.9,41.4,29.87,WSW,245,5.0,10.0,81,0.00,,,-99.99,Weather View 32 v60,2013-04-16 07:20:00,
2013-04-16 03:25:00,46.9,41.4,29.87,WNW,283,6.0,10.0,81,0.00,,,-99.99,Weather View 32 v60,2013-04-16 07:25:00,
2013-04-16 03:30:00,46.9,41.4,29.87,West,275,6.0,8.0,81,0.00,,,-99.99,Weather View 32 v60,2013-04-16 07:30:00,
2013-04-16 03:35:00,46.8,41.2,29.87,WNW,283,4.0,8.0,81,0.00,,,-99.99,Weather View 32 v60,2013-04-16 07:35:00,
2013-04-16 03:40:00,46.8,41.5,29.87,WSW,253,5.0,8.0,82,0.00,,,-99.99,Weather View 32 v60,2013-04-16 07:40:00,
2013-04-16 03:45:00,46.8,41.5,29.87,West,281,6.0,9.0,82,0.00,,,-99.99,Weather View 32 v60,2013-04-16 07:45:00,
2013-04-16 03:50:00,46.8,41.5,29.90,WSW,252,6.0,9.0,82,0.00,,,-99.99,Weather View 32 v60,2013-04-16 07:50:00,
2013-04-16 03:55:00,46.6,41.4,29.90,WNW,293,8.0,13.0,82,0.00,,,-99.99,Weather View 32 v60,2013-04-16 07:55:00,
2013-04-16 04:00:00,46.2,41.0,29.90,WNW,299,11.0,13.0,82,0.00,,,-99.99,Weather View 32 v60,2013-04-16 08:00:00,
2013-04-16 04:05:00,45.9,40.4,29.90,WNW,290,6.0,13.0,81,0.00,,,-99.99,Weather View 32 v60,2013-04-16 08:05:00,
2013-04-16 04:10:00,45.5,39.7,29.90,NNW,331,10.0,13.0,80,0.00,,,-99.99,Weather View 32 v60,2013-04-16 08:10:00,
2013-04-16 04:15:00,45.3,39.2,29.90,WNW,294,8.0,13.0,79,0.00,,,-99.99,Weather View 32 v60,2013-04-16 08:15:00,
2013-04-16 04:20:00,45.1,39.0,29.90,WNW,296,6.0,13.0,79,0.00,,,-99.99,Weather View 32 v60,2013-04-16 08:20:00,
2013-04-16 04:25:00,45.0,38.8,29.90,West,270,6.0,13.0,79,0.00,,,-99.99,Weather View 32 v60,2013-04-16 08:25:00,
2013-04-16 04:30:00,44.8,38.7,29.90,WNW,288,8.0,13.0,79,0.00,,,-99.99,Weather View 32 v60,2013-04-16 08:30:00,
2013-04-16 04:39:00,44.6,38.5,29.90,WNW,291,6.0,13.0,79,0.00,,,-99.99,Weather View 32 v60,2013-04-16 08:39:00,
2013-04-16 04:45:00,44.2,38.1,29.90,WNW,291,11.0,13.0,79,0.00,,,-99.99,Weather View 32 v60,2013-04-16 08:45:00,
2013-04-16 04:50:00,44.1,38.0,29.90,WNW,284,11.0,13.0,79,0.00,,,-99.99,Weather View 32 v60,2013-04-16 08:50:00,
2013-04-16 04:55:00,43.9,37.8,29.90,WNW,294,8.0,13.0,79,0.00,,,-99.99,Weather View 32 v60,2013-04-16 08:55:00,
2013-04-16 05:00:00,43.7,37.6,29.90,WSW,250,5.0,13.0,79,0.00,,,-99.99,Weather View 32 v60,2013-04-16 09:00:00,
2013-04-16 05:05:00,43.7,37.6,29.90,WNW,298,4.0,11.0,79,0.00,,,-99.99,Weather View 32 v60,2013-04-16 09:05:00,
2013-04-16 05:10:00,43.5,37.4,29.90,WNW,283,6.0,11.0,79,0.00,,,-99.99,Weather View 32 v60,2013-04-16 09:10:00,
2013-04-16 05:15:00,43.5,37.4,29.90,WNW,283,8.0,11.0,79,0.00,,,-99.99,Weather View 32 v60,2013-04-16 09:15:00,
2013-04-16 05:20:00,43.5,37.4,29.90,WNW,296,8.0,11.0,79,0.00,,,-99.99,Weather View 32 v60,2013-04-16 09:20:00,
2013-04-16 05:25:00,43.3,37.3,29.90,WNW,284,4.0,11.0,79,0.00,,,-99.99,Weather View 32 v60,2013-04-16 09:25:00,
2013-04-16 05:30:00,43.3,37.6,29.90,WNW,298,4.0,11.0,80,0.00,,,-99.99,Weather View 32 v60,2013-04-16 09:30:00,
2013-04-16 05:35:00,43.3,37.6,29.90,WNW,297,8.0,11.0,80,0.00,,,-99.99,Weather View 32 v60,2013-04-16 09:35:00,
2013-04-16 05:40:00,43.2,37.4,29.90,West,274,8.0,11.0,80,0.00,,,-99.99,Weather View 32 v60,2013-04-16 09:40:00,
2013-04-16 05:45:00,43.2,37.4,29.90,West,272,6.0,11.0,80,0.00,,,-99.99,Weather View 32 v60,2013-04-16 09:45:00,
2013-04-16 05:50:00,43.0,37.2,29.93,West,266,4.0,11.0,80,0.00,,,-99.99,Weather View 32 v60,2013-04-16 09:50:00,
2013-04-16 05:55:00,43.0,37.2,29.93,WNW,284,5.0,9.0,80,0.00,,,-99.99,Weather View 32 v60,2013-04-16 09:55:00,
2013-04-16 06:00:00,43.0,37.2,29.93,WNW,288,5.0,9.0,80,0.00,,,-99.99,Weather View 32 v60,2013-04-16 10:00:00,
2013-04-16 06:05:00,43.0,37.5,29.93,West,281,4.0,9.0,81,0.00,,,-99.99,Weather View 32 v60,2013-04-16 10:05:00,
2013-04-16 06:10:00,43.0,37.5,29.93,WNW,295,6.0,9.0,81,0.00,,,-99.99,Weather View 32 v60,2013-04-16 10:10:00,
2013-04-16 06:15:00,43.0,37.5,29.93,WNW,285,4.0,9.0,81,0.00,,,-99.99,Weather View 32 v60,2013-04-16 10:15:00,
2013-04-16 06:20:00,43.0,37.5,29.96,WNW,286,6.0,9.0,81,0.00,,,-99.99,Weather View 32 v60,2013-04-16 10:20:00,
2013-04-16 06:25:00,42.8,37.4,29.96,WNW,300,5.0,9.0,81,0.00,,,-99.99,Weather View 32 v60,2013-04-16 10:25:00,
2013-04-16 06:30:00,42.8,37.4,29.96,WNW,302,4.0,9.0,81,0.00,,,-99.99,Weather View 32 v60,2013-04-16 10:30:00,
2013-04-16 06:45:00,42.8,37.4,29.93,WNW,295,5.0,9.0,81,0.00,,,-99.99,Weather View 32 v60,2013-04-16 10:45:00,
2013-04-16 06:50:00,42.6,37.5,29.96,NW,304,5.0,9.0,82,0.00,,,-99.99,Weather View 32 v60,2013-04-16 10:50:00,
2013-04-16 06:55:00,42.6,37.2,29.96,NW,307,8.0,10.0,81,0.00,,,-99.99,Weather View 32 v60,2013-04-16 10:55:00,
2013-04-16 07:00:00,42.4,37.0,29.96,WNW,289,8.0,10.0,81,0.00,,,-99.99,Weather View 32 v60,2013-04-16 11:00:00,
2013-04-16 07:05:00,42.3,36.5,29.96,WNW,300,5.0,10.0,80,0.00,,,-99.99,Weather View 32 v60,2013-04-16 11:05:00,
2013-04-16 07:10:00,42.1,35.7,29.96,NW,324,4.0,10.0,78,0.00,,,-99.99,Weather View 32 v60,2013-04-16 11:10:00,
2013-04-16 07:15:00,41.7,34.0,29.96,NW,323,3.0,10.0,74,0.00,,,-99.99,Weather View 32 v60,2013-04-16 11:15:00,
2013-04-16 07:25:00,41.2,30.3,29.96,West,277,0.0,10.0,65,0.00,,,-99.99,Weather View 32 v60,2013-04-16 11:25:00,
2013-04-16 07:35:00,40.6,29.0,29.96,NW,320,0.0,10.0,63,0.00,,,-99.99,Weather View 32 v60,2013-04-16 11:35:00,
2013-04-16 07:40:00,40.6,28.6,29.96,WNW,303,2.0,10.0,62,0.00,,,-99.99,Weather View 32 v60,2013-04-16 11:40:00,
2013-04-16 07:45:00,40.5,28.5,29.96,WNW,297,3.0,10.0,62,0.00,,,-99.99,Weather View 32 v60,2013-04-16 11:45:00,
2013-04-16 07:50:00,40.3,28.7,29.96,WNW,297,0.0,10.0,63,0.00,,,-99.99,Weather View 32 v60,2013-04-16 11:50:00,
2013-04-16 07:55:00,40.3,28.7,29.96,WNW,297,0.0,10.0,63,0.00,,,-99.99,Weather View 32 v60,2013-04-16 11:55:00,
2013-04-16 08:00:00,40.3,29.1,29.96,WNW,301,4.0,9.0,64,0.00,,,-99.99,Weather View 32 v60,2013-04-16 12:00:00,
2013-04-16 08:05:00,40.3,29.4,29.96,WNW,287,4.0,9.0,65,0.00,,,-99.99,Weather View 32 v60,2013-04-16 12:05:00,
2013-04-16 08:10:00,40.3,29.4,29.96,WNW,300,3.0,8.0,65,0.00,,,-99.99,Weather View 32 v60,2013-04-16 12:10:00,
2013-04-16 08:15:00,40.5,29.6,29.96,WNW,289,5.0,8.0,65,0.00,,,-99.99,Weather View 32 v60,2013-04-16 12:15:00,
2013-04-16 08:20:00,40.5,29.2,29.99,WNW,292,5.0,8.0,64,0.00,,,-99.99,Weather View 32 v60,2013-04-16 12:20:00,
2013-04-16 08:25:00,40.6,28.6,29.99,WNW,300,5.0,9.0,62,0.00,,,-99.99,Weather View 32 v60,2013-04-16 12:25:00,
2013-04-16 08:30:00,40.6,27.8,29.99,WNW,293,6.0,9.0,60,0.00,,,-99.99,Weather View 32 v60,2013-04-16 12:30:00,
2013-04-16 08:35:00,40.8,27.6,29.99,WNW,296,8.0,9.0,59,0.00,,,-99.99,Weather View 32 v60,2013-04-16 12:35:00,
2013-04-16 08:40:00,41.0,26.0,29.99,WNW,290,8.0,11.0,55,0.00,,,-99.99,Weather View 32 v60,2013-04-16 12:40:00,
2013-04-16 08:45:00,41.0,26.0,29.99,West,277,6.0,11.0,55,0.00,,,-99.99,Weather View 32 v60,2013-04-16 12:45:00,
2013-04-16 08:55:00,41.2,25.8,29.99,West,275,8.0,11.0,54,0.00,,,-99.99,Weather View 32 v60,2013-04-16 12:55:00,
2013-04-16 09:00:00,41.4,25.5,29.99,WNW,282,8.0,11.0,53,0.00,,,-99.99,Weather View 32 v60,2013-04-16 13:00:00,
2013-04-16 09:05:00,41.4,24.6,29.99,WNW,288,9.0,12.0,51,0.00,,,-99.99,Weather View 32 v60,2013-04-16 13:05:00,
2013-04-16 09:10:00,41.5,24.7,29.99,West,267,8.0,13.0,51,0.00,,,-99.99,Weather View 32 v60,2013-04-16 13:10:00,
2013-04-16 09:15:00,41.7,24.4,29.99,West,278,9.0,13.0,50,0.00,,,-99.99,Weather View 32 v60,2013-04-16 13:15:00,
2013-04-16 09:20:00,41.7,24.4,29.99,WSW,253,8.0,13.0,50,0.00,,,-99.99,Weather View 32 v60,2013-04-16 13:20:00,
2013-04-16 09:25:00,41.9,24.6,29.99,West,281,6.0,13.0,50,0.00,,,-99.99,Weather View 32 v60,2013-04-16 13:25:00,
2013-04-16 09:30:00,42.1,24.8,29.99,WNW,298,9.0,13.0,50,0.00,,,-99.99,Weather View 32 v60,2013-04-16 13:30:00,
2013-04-16 09:35:00,42.4,24.6,29.99,WNW,290,10.0,13.0,49,0.00,,,-99.99,Weather View 32 v60,2013-04-16 13:35:00,
2013-04-16 09:40:00,42.4,24.1,29.99,West,270,11.0,13.0,48,0.00,,,-99.99,Weather View 32 v60,2013-04-16 13:40:00,
2013-04-16 09:45:00,42.6,24.3,29.99,West,277,8.0,13.0,48,0.00,,,-99.99,Weather View 32 v60,2013-04-16 13:45:00,
2013-04-16 09:50:00,42.6,23.3,30.02,West,275,8.0,13.0,46,0.00,,,-99.99,Weather View 32 v60,2013-04-16 13:50:00,
2013-04-16 09:55:00,42.6,23.8,30.02,NW,306,8.0,13.0,47,0.00,,,-99.99,Weather View 32 v60,2013-04-16 13:55:00,
2013-04-16 10:00:00,42.6,24.3,30.02,West,278,8.0,13.0,48,0.00,,,-99.99,Weather View 32 v60,2013-04-16 14:00:00,
2013-04-16 10:05:00,42.8,23.9,30.02,West,280,9.0,14.0,47,0.00,,,-99.99,Weather View 32 v60,2013-04-16 14:05:00,
2013-04-16 10:10:00,42.8,23.9,30.02,SW,235,8.0,15.0,47,0.00,,,-99.99,Weather View 32 v60,2013-04-16 14:10:00,
2013-04-16 10:15:00,42.8,23.9,30.02,West,279,9.0,15.0,47,0.00,,,-99.99,Weather View 32 v60,2013-04-16 14:15:00,
2013-04-16 10:20:00,43.0,24.6,30.02,West,269,10.0,15.0,48,0.00,,,-99.99,Weather View 32 v60,2013-04-16 14:20:00,
2013-04-16 10:25:00,43.2,23.8,30.02,West,276,11.0,15.0,46,0.00,,,-99.99,Weather View 32 v60,2013-04-16 14:25:00,
2013-04-16 10:30:00,43.3,22.9,30.02,WNW,289,11.0,15.0,44,0.00,,,-99.99,Weather View 32 v60,2013-04-16 14:30:00,
2013-04-16 10:35:00,43.5,23.6,30.02,WNW,286,9.0,15.0,45,0.00,,,-99.99,Weather View 32 v60,2013-04-16 14:35:00,
2013-04-16 10:40:00,43.7,23.2,30.02,West,268,9.0,15.0,44,0.00,,,-99.99,Weather View 32 v60,2013-04-16 14:40:00,
2013-04-16 10:45:00,44.1,24.0,30.02,NW,304,8.0,15.0,45,0.00,,,-99.99,Weather View 32 v60,2013-04-16 14:45:00,
2013-04-16 10:50:00,44.2,24.2,30.02,West,273,11.0,15.0,45,0.00,,,-99.99,Weather View 32 v60,2013-04-16 14:50:00,
2013-04-16 10:55:00,44.4,23.3,30.02,West,280,8.0,15.0,43,0.00,,,-99.99,Weather View 32 v60,2013-04-16 14:55:00,
2013-04-16 11:00:00,44.6,24.0,30.02,West,267,10.0,15.0,44,0.00,,,-99.99,Weather View 32 v60,2013-04-16 15:00:00,
2013-04-16 11:05:00,44.6,22.3,30.02,WNW,294,12.0,15.0,41,0.00,,,-99.99,Weather View 32 v60,2013-04-16 15:05:00,
2013-04-16 11:10:00,44.8,23.6,30.02,WNW,291,10.0,15.0,43,0.00,,,-99.99,Weather View 32 v60,2013-04-16 15:10:00,
2013-04-16 11:15:00,45.1,23.9,30.02,WNW,292,11.0,15.0,43,0.00,,,-99.99,Weather View 32 v60,2013-04-16 15:15:00,
2013-04-16 11:20:00,45.3,24.1,30.02,West,275,11.0,17.0,43,0.00,,,-99.99,Weather View 32 v60,2013-04-16 15:20:00,
2013-04-16 11:25:00,45.5,23.1,30.02,WNW,292,13.0,17.0,41,0.00,,,-99.99,Weather View 32 v60,2013-04-16 15:25:00,
2013-04-16 11:30:00,45.5,23.1,30.02,WNW,303,14.0,17.0,41,0.00,,,-99.99,Weather View 32 v60,2013-04-16 15:30:00,
2013-04-16 11:35:00,45.9,22.9,30.05,WNW,299,15.0,17.0,40,0.00,,,-99.99,Weather View 32 v60,2013-04-16 15:35:00,
2013-04-16 11:40:00,45.9,22.9,30.05,WNW,298,8.0,17.0,40,0.00,,,-99.99,Weather View 32 v60,2013-04-16 15:40:00,
2013-04-16 11:45:00,45.9,22.9,30.05,NW,311,8.0,17.0,40,0.00,,,-99.99,Weather View 32 v60,2013-04-16 15:45:00,
2013-04-16 11:50:00,45.9,22.9,30.05,WNW,296,11.0,18.0,40,0.00,,,-99.99,Weather View 32 v60,2013-04-16 15:50:00,
2013-04-16 11:55:00,46.0,23.0,30.05,WNW,296,8.0,18.0,40,0.00,,,-99.99,Weather View 32 v60,2013-04-16 15:55:00,
2013-04-16 12:00:00,46.0,23.6,30.05,WSW,250,8.0,18.0,41,0.00,,,-99.99,Weather View 32 v60,2013-04-16 16:00:00,
2013-04-16 12:05:00,46.4,22.7,30.05,NW,311,9.0,18.0,39,0.00,,,-99.99,Weather View 32 v60,2013-04-16 16:05:00,
2013-04-16 12:10:00,46.4,22.7,30.05,WNW,301,7.0,18.0,39,0.00,,,-99.99,Weather View 32 v60,2013-04-16 16:10:00,
2013-04-16 12:15:00,46.6,23.5,30.05,WNW,284,11.0,18.0,40,0.00,,,-99.99,Weather View 32 v60,2013-04-16 16:15:00,
2013-04-16 12:20:00,46.6,22.9,30.05,WNW,286,7.0,18.0,39,0.00,,,-99.99,Weather View 32 v60,2013-04-16 16:20:00,
2013-04-16 12:25:00,46.6,22.9,30.05,West,281,10.0,18.0,39,0.00,,,-99.99,Weather View 32 v60,2013-04-16 16:25:00,
2013-04-16 12:30:00,46.8,23.1,30.05,WNW,284,11.0,18.0,39,0.00,,,-99.99,Weather View 32 v60,2013-04-16 16:30:00,
2013-04-16 12:35:00,46.8,22.5,30.05,North,353,11.0,18.0,38,0.00,,,-99.99,Weather View 32 v60,2013-04-16 16:35:00,
2013-04-16 12:40:00,46.9,22.0,30.05,West,279,15.0,20.0,37,0.00,,,-99.99,Weather View 32 v60,2013-04-16 16:40:00,
2013-04-16 12:45:00,47.1,22.1,30.05,NW,313,6.0,20.0,37,0.00,,,-99.99,Weather View 32 v60,2013-04-16 16:45:00,
2013-04-16 12:50:00,47.3,22.9,30.05,West,280,13.0,20.0,38,0.00,,,-99.99,Weather View 32 v60,2013-04-16 16:50:00,
2013-04-16 12:55:00,47.5,22.5,30.05,WNW,287,12.0,20.0,37,0.00,,,-99.99,Weather View 32 v60,2013-04-16 16:55:00,
2013-04-16 13:00:00,47.7,22.6,30.05,West,266,12.0,20.0,37,0.00,,,-99.99,Weather View 32 v60,2013-04-16 17:00:00,
2013-04-16 13:05:00,47.8,22.8,30.05,WNW,284,14.0,20.0,37,0.00,,,-99.99,Weather View 32 v60,2013-04-16 17:05:00,
2013-04-16 13:10:00,48.0,22.9,30.05,WNW,301,11.0,20.0,37,0.00,,,-99.99,Weather View 32 v60,2013-04-16 17:10:00,
2013-04-16 13:15:00,48.0,22.9,30.05,NW,304,8.0,20.0,37,0.00,,,-99.99,Weather View 32 v60,2013-04-16 17:15:00,
2013-04-16 13:20:00,48.0,22.9,30.05,WSW,252,6.0,20.0,37,0.00,,,-99.99,Weather View 32 v60,2013-04-16 17:20:00,
2013-04-16 13:25:00,48.0,22.9,30.05,WNW,292,8.0,20.0,37,0.00,,,-99.99,Weather View 32 v60,2013-04-16 17:25:00,
2013-04-16 13:30:00,48.2,23.1,30.05,WNW,285,11.0,20.0,37,0.00,,,-99.99,Weather View 32 v60,2013-04-16 17:30:00,
2013-04-16 13:35:00,48.4,23.3,30.05,WSW,257,11.0,20.0,37,0.00,,,-99.99,Weather View 32 v60,2013-04-16 17:35:00,
2013-04-16 13:40:00,48.6,23.4,30.05,WNW,299,9.0,18.0,37,0.00,,,-99.99,Weather View 32 v60,2013-04-16 17:40:00,
2013-04-16 13:45:00,48.7,22.9,30.05,WNW,282,13.0,18.0,36,0.00,,,-99.99,Weather View 32 v60,2013-04-16 17:45:00,
2013-04-16 13:50:00,48.9,22.4,30.05,WNW,300,13.0,18.0,35,0.00,,,-99.99,Weather View 32 v60,2013-04-16 17:50:00,
2013-04-16 14:00:00,49.1,21.9,30.05,WNW,295,11.0,17.0,34,0.00,,,-99.99,Weather View 32 v60,2013-04-16 18:00:00,
2013-04-16 14:05:00,49.3,22.1,30.05,West,269,13.0,17.0,34,0.00,,,-99.99,Weather View 32 v60,2013-04-16 18:05:00,
2013-04-16 14:10:00,49.5,22.2,30.05,WNW,297,12.0,17.0,34,0.00,,,-99.99,Weather View 32 v60,2013-04-16 18:10:00,
2013-04-16 14:15:00,49.8,21.8,30.05,NW,321,8.0,17.0,33,0.00,,,-99.99,Weather View 32 v60,2013-04-16 18:15:00,
2013-04-16 14:20:00,49.8,21.8,30.05,NW,304,8.0,17.0,33,0.00,,,-99.99,Weather View 32 v60,2013-04-16 18:20:00,
2013-04-16 14:25:00,50.0,21.2,30.05,WNW,302,11.0,20.0,32,0.00,,,-99.99,Weather View 32 v60,2013-04-16 18:25:00,
2013-04-16 14:30:00,50.2,21.4,30.05,NW,306,11.0,20.0,32,0.00,,,-99.99,Weather View 32 v60,2013-04-16 18:30:00,
2013-04-16 14:35:00,50.4,20.8,30.05,North,357,13.0,20.0,31,0.00,,,-99.99,Weather View 32 v60,2013-04-16 18:35:00,
2013-04-16 14:40:00,50.5,20.2,30.05,WNW,291,15.0,20.0,30,0.00,,,-99.99,Weather View 32 v60,2013-04-16 18:40:00,
2013-04-16 14:50:00,50.9,19.7,30.05,WNW,302,11.0,20.0,29,0.00,,,-99.99,Weather View 32 v60,2013-04-16 18:50:00,
2013-04-16 15:00:00,51.3,20.0,30.05,WNW,302,8.0,20.0,29,0.00,,,-99.99,Weather View 32 v60,2013-04-16 19:00:00,
2013-04-16 15:05:00,51.4,20.2,30.05,WNW,286,17.0,20.0,29,0.00,,,-99.99,Weather View 32 v60,2013-04-16 19:05:00,
2013-04-16 15:10:00,51.6,19.5,30.05,WNW,291,18.0,20.0,28,0.00,,,-99.99,Weather View 32 v60,2013-04-16 19:10:00,
2013-04-16 15:15:00,51.8,19.7,30.05,West,275,10.0,20.0,28,0.00,,,-99.99,Weather View 32 v60,2013-04-16 19:15:00,
2013-04-16 15:20:00,52.0,19.8,30.08,NW,307,11.0,20.0,28,0.00,,,-99.99,Weather View 32 v60,2013-04-16 19:20:00,
2013-04-16 15:25:00,52.0,19.8,30.08,WNW,291,13.0,20.0,28,0.00,,,-99.99,Weather View 32 v60,2013-04-16 19:25:00,
2013-04-16 15:30:00,52.2,19.1,30.08,WNW,287,11.0,20.0,27,0.00,,,-99.99,Weather View 32 v60,2013-04-16 19:30:00,
2013-04-16 15:35:00,52.2,19.1,30.08,West,260,12.0,20.0,27,0.00,,,-99.99,Weather View 32 v60,2013-04-16 19:35:00,
2013-04-16 15:45:00,52.3,20.1,30.08,NNW,337,6.0,20.0,28,0.00,,,-99.99,Weather View 32 v60,2013-04-16 19:45:00,
2013-04-16 15:50:00,52.3,20.1,30.08,WNW,288,9.0,20.0,28,0.00,,,-99.99,Weather View 32 v60,2013-04-16 19:50:00,
2013-04-16 15:55:00,52.5,19.4,30.08,WNW,299,13.0,20.0,27,0.00,,,-99.99,Weather View 32 v60,2013-04-16 19:55:00,
2013-04-16 16:00:00,52.7,19.6,30.08,WNW,303,13.0,20.0,27,0.00,,,-99.99,Weather View 32 v60,2013-04-16 20:00:00,
2013-04-16 16:05:00,52.7,19.6,30.08,NW,304,9.0,21.0,27,0.00,,,-99.99,Weather View 32 v60,2013-04-16 20:05:00,
2013-04-16 16:10:00,52.9,19.8,30.08,WNW,286,14.0,21.0,27,0.00,,,-99.99,Weather View 32 v60,2013-04-16 20:10:00,
2013-04-16 16:15:00,53.1,19.9,30.08,WNW,287,12.0,21.0,27,0.00,,,-99.99,Weather View 32 v60,2013-04-16 20:15:00,
2013-04-16 16:20:00,52.9,19.8,30.08,NNW,338,5.0,21.0,27,0.00,,,-99.99,Weather View 32 v60,2013-04-16 20:20:00,
2013-04-16 16:25:00,52.9,19.8,30.08,West,271,9.0,21.0,27,0.00,,,-99.99,Weather View 32 v60,2013-04-16 20:25:00,
2013-04-16 16:30:00,53.1,19.9,30.08,West,279,9.0,21.0,27,0.00,,,-99.99,Weather View 32 v60,2013-04-16 20:30:00,
2013-04-16 16:35:00,53.2,20.1,30.08,WNW,300,8.0,21.0,27,0.00,,,-99.99,Weather View 32 v60,2013-04-16 20:35:00,
2013-04-16 16:45:00,53.4,20.2,30.08,West,280,11.0,21.0,27,0.00,,,-99.99,Weather View 32 v60,2013-04-16 20:45:00,
2013-04-16 16:50:00,53.6,19.5,30.08,WNW,294,8.0,21.0,26,0.00,,,-99.99,Weather View 32 v60,2013-04-16 20:50:00,
2013-04-16 16:55:00,53.6,19.5,30.08,WNW,290,6.0,21.0,26,0.00,,,-99.99,Weather View 32 v60,2013-04-16 20:55:00,
2013-04-16 17:00:00,53.6,19.5,30.08,WNW,289,8.0,21.0,26,0.00,,,-99.99,Weather View 32 v60,2013-04-16 21:00:00,
2013-04-16 17:05:00,53.8,19.6,30.11,West,279,6.0,19.0,26,0.00,,,-99.99,Weather View 32 v60,2013-04-16 21:05:00,
2013-04-16 17:10:00,53.8,19.6,30.11,West,278,11.0,19.0,26,0.00,,,-99.99,Weather View 32 v60,2013-04-16 21:10:00,
2013-04-16 17:15:00,53.8,19.6,30.11,West,266,10.0,19.0,26,0.00,,,-99.99,Weather View 32 v60,2013-04-16 21:15:00,
2013-04-16 17:20:00,53.8,19.6,30.11,West,281,9.0,19.0,26,0.00,,,-99.99,Weather View 32 v60,2013-04-16 21:20:00,
2013-04-16 17:25:00,54.0,19.8,30.11,WNW,295,9.0,19.0,26,0.00,,,-99.99,Weather View 32 v60,2013-04-16 21:25:00,
2013-04-16 17:30:00,54.0,19.8,30.11,WNW,297,8.0,19.0,26,0.00,,,-99.99,Weather View 32 v60,2013-04-16 21:30:00,
2013-04-16 17:35:00,54.0,19.8,30.11,NW,322,4.0,19.0,26,0.00,,,-99.99,Weather View 32 v60,2013-04-16 21:35:00,
2013-04-16 17:45:00,54.0,19.8,30.11,North,10,4.0,15.0,26,0.00,,,-99.99,Weather View 32 v60,2013-04-16 21:45:00,
2013-04-16 17:50:00,54.0,19.8,30.11,WNW,295,4.0,15.0,26,0.00,,,-99.99,Weather View 32 v60,2013-04-16 21:50:00,
2013-04-16 17:55:00,54.0,19.8,30.11,NNW,340,5.0,15.0,26,0.00,,,-99.99,Weather View 32 v60,2013-04-16 21:55:00,
2013-04-16 18:00:00,54.0,19.8,30.11,WNW,286,6.0,15.0,26,0.00,,,-99.99,Weather View 32 v60,2013-04-16 22:00:00,
2013-04-16 18:05:00,53.8,19.6,30.11,NW,322,5.0,15.0,26,0.00,,,-99.99,Weather View 32 v60,2013-04-16 22:05:00,
2013-04-16 18:10:00,53.8,19.6,30.11,NNW,333,3.0,15.0,26,0.00,,,-99.99,Weather View 32 v60,2013-04-16 22:10:00,
2013-04-16 18:15:00,53.8,19.6,30.11,WNW,302,6.0,15.0,26,0.00,,,-99.99,Weather View 32 v60,2013-04-16 22:15:00,
2013-04-16 18:20:00,53.8,19.6,30.14,West,280,8.0,15.0,26,0.00,,,-99.99,Weather View 32 v60,2013-04-16 22:20:00,
2013-04-16 18:25:00,53.8,19.6,30.14,WNW,282,11.0,15.0,26,0.00,,,-99.99,Weather View 32 v60,2013-04-16 22:25:00,
2013-04-16 18:30:00,53.6,19.5,30.14,WNW,292,6.0,15.0,26,0.00,,,-99.99,Weather View 32 v60,2013-04-16 22:30:00,
2013-04-16 18:35:00,53.6,19.5,30.14,WNW,283,12.0,13.0,26,0.00,,,-99.99,Weather View 32 v60,2013-04-16 22:35:00,
2013-04-16 18:45:00,53.4,19.3,30.14,WNW,291,8.0,13.0,26,0.00,,,-99.99,Weather View 32 v60,2013-04-16 22:45:00,
2013-04-16 18:50:00,53.2,19.2,30.14,NW,308,4.0,13.0,26,0.00,,,-99.99,Weather View 32 v60,2013-04-16 22:50:00,
2013-04-16 18:55:00,53.2,19.2,30.14,WNW,289,13.0,13.0,26,0.00,,,-99.99,Weather View 32 v60,2013-04-16 22:55:00,
2013-04-16 19:00:00,53.2,19.2,30.14,WNW,300,6.0,13.0,26,0.00,,,-99.99,Weather View 32 v60,2013-04-16 23:00:00,
2013-04-16 19:05:00,53.1,19.0,30.14,NW,305,3.0,13.0,26,0.00,,,-99.99,Weather View 32 v60,2013-04-16 23:05:00,
2013-04-16 19:10:00,53.1,19.0,30.14,North,0,3.0,13.0,26,0.00,,,-99.99,Weather View 32 v60,2013-04-16 23:10:00,
2013-04-16 19:15:00,53.1,19.9,30.14,NNW,342,3.0,13.0,27,0.00,,,-99.99,Weather View 32 v60,2013-04-16 23:15:00,
2013-04-16 19:20:00,53.1,19.0,30.14,WNW,303,5.0,13.0,26,0.00,,,-99.99,Weather View 32 v60,2013-04-16 23:20:00,
2013-04-16 19:30:00,52.9,18.9,30.14,NNW,331,3.0,13.0,26,0.00,,,-99.99,Weather View 32 v60,2013-04-16 23:30:00,
2013-04-16 19:35:00,52.7,18.7,30.14,NNW,330,3.0,13.0,26,0.00,,,-99.99,Weather View 32 v60,2013-04-16 23:35:00,
2013-04-16 19:40:00,52.5,18.6,30.14,NNW,335,3.0,13.0,26,0.00,,,-99.99,Weather View 32 v60,2013-04-16 23:40:00,
2013-04-16 19:45:00,52.3,18.4,30.14,North,4,0.0,13.0,26,0.00,,,-99.99,Weather View 32 v60,2013-04-16 23:45:00,
2013-04-16 19:50:00,52.2,19.1,30.14,NNE,32,2.0,13.0,27,0.00,,,-99.99,Weather View 32 v60,2013-04-16 23:50:00,
2013-04-16 19:55:00,52.0,19.0,30.14,NNW,343,4.0,13.0,27,0.00,,,-99.99,Weather View 32 v60,2013-04-16 23:55:00,
2013-04-16 20:00:00,51.6,18.7,30.14,NNW,331,3.0,10.0,27,0.00,,,-99.99,Weather View 32 v60,2013-04-17 00:00:00,
2013-04-16 20:05:00,51.4,18.5,30.17,North,357,3.0,9.0,27,0.00,,,-99.99,Weather View 32 v60,2013-04-17 00:05:00,
2013-04-16 20:10:00,51.1,18.2,30.17,North,357,0.0,9.0,27,0.00,,,-99.99,Weather View 32 v60,2013-04-17 00:10:00,
2013-04-16 20:15:00,50.9,18.0,30.17,NNW,330,0.0,9.0,27,0.00,,,-99.99,Weather View 32 v60,2013-04-17 00:15:00,
2013-04-16 20:25:00,50.4,17.6,30.17,North,0,4.0,9.0,27,0.00,,,-99.99,Weather View 32 v60,2013-04-17 00:25:00,
2013-04-16 20:30:00,50.0,17.3,30.17,North,6,0.0,7.0,27,0.00,,,-99.99,Weather View 32 v60,2013-04-17 00:30:00,
2013-04-16 20:35:00,49.6,17.8,30.17,North,0,0.0,7.0,28,0.00,,,-99.99,Weather View 32 v60,2013-04-17 00:35:00,
2013-04-16 20:40:00,49.5,17.7,30.17,North,357,2.0,7.0,28,0.00,,,-99.99,Weather View 32 v60,2013-04-17 00:40:00,
2013-04-16 20:45:00,49.1,17.3,30.17,North,3,2.0,7.0,28,0.00,,,-99.99,Weather View 32 v60,2013-04-17 00:45:00,
2013-04-16 20:50:00,48.9,17.2,30.17,North,0,0.0,7.0,28,0.00,,,-99.99,Weather View 32 v60,2013-04-17 00:50:00,
2013-04-16 20:55:00,48.7,17.0,30.17,NW,322,3.0,7.0,28,0.00,,,-99.99,Weather View 32 v60,2013-04-17 00:55:00,
2013-04-16 21:00:00,48.4,17.5,30.17,NNW,343,0.0,5.0,29,0.00,,,-99.99,Weather View 32 v60,2013-04-17 01:00:00,
2013-04-16 21:10:00,48.0,17.2,30.20,North,2,2.0,5.0,29,0.00,,,-99.99,Weather View 32 v60,2013-04-17 01:10:00,
2013-04-16 21:15:00,47.7,16.9,30.20,NNW,346,0.0,5.0,29,0.00,,,-99.99,Weather View 32 v60,2013-04-17 01:15:00,
2013-04-16 21:20:00,47.5,17.5,30.20,NNW,346,0.0,5.0,30,0.00,,,-99.99,Weather View 32 v60,2013-04-17 01:20:00,
2013-04-16 21:25:00,47.3,17.4,30.20,NNW,346,0.0,5.0,30,0.00,,,-99.99,Weather View 32 v60,2013-04-17 01:25:00,
2013-04-16 21:30:00,47.1,17.2,30.20,NNW,346,0.0,5.0,30,0.00,,,-99.99,Weather View 32 v60,2013-04-17 01:30:00,
2013-04-16 21:35:00,46.9,17.1,30.20,North,357,0.0,5.0,30,0.00,,,-99.99,Weather View 32 v60,2013-04-17 01:35:00,
2013-04-16 21:45:00,46.4,17.4,30.20,NE,43,4.0,5.0,31,0.00,,,-99.99,Weather View 32 v60,2013-04-17 01:45:00,
2013-04-16 21:50:00,46.2,17.2,30.23,NNE,24,3.0,5.0,31,0.00,,,-99.99,Weather View 32 v60,2013-04-17 01:50:00,
2013-04-16 21:55:00,45.9,16.1,30.23,NE,39,3.0,5.0,30,0.00,,,-99.99,Weather View 32 v60,2013-04-17 01:55:00,
2013-04-16 22:00:00,45.7,16.7,30.23,North,9,3.0,6.0,31,0.00,,,-99.99,Weather View 32 v60,2013-04-17 02:00:00,
2013-04-16 22:05:00,45.5,16.6,30.23,NNE,14,0.0,6.0,31,0.00,,,-99.99,Weather View 32 v60,2013-04-17 02:05:00,
2013-04-16 22:10:00,45.3,16.4,30.23,North,5,0.0,6.0,31,0.00,,,-99.99,Weather View 32 v60,2013-04-17 02:10:00,
2013-04-16 22:15:00,45.1,16.3,30.23,North,5,2.0,8.0,31,0.00,,,-99.99,Weather View 32 v60,2013-04-17 02:15:00,
2013-04-16 22:20:00,44.8,15.9,30.23,North,0,2.0,8.0,31,0.00,,,-99.99,Weather View 32 v60,2013-04-17 02:20:00,
2013-04-16 22:30:00,44.4,16.4,30.23,NNE,32,2.0,8.0,32,0.00,,,-99.99,Weather View 32 v60,2013-04-17 02:30:00,
2013-04-16 22:35:00,44.2,16.2,30.23,North,2,0.0,8.0,32,0.00,,,-99.99,Weather View 32 v60,2013-04-17 02:35:00,
2013-04-16 22:45:00,43.7,16.4,30.23,North,353,0.0,8.0,33,0.00,,,-99.99,Weather View 32 v60,2013-04-17 02:45:00,
2013-04-16 22:50:00,43.5,16.3,30.23,North,3,4.0,8.0,33,0.00,,,-99.99,Weather View 32 v60,2013-04-17 02:50:00,
2013-04-16 22:55:00,43.3,16.1,30.23,North,0,0.0,8.0,33,0.00,,,-99.99,Weather View 32 v60,2013-04-17 02:55:00,
2013-04-16 23:00:00,43.3,16.1,30.23,North,10,4.0,8.0,33,0.00,,,-99.99,Weather View 32 v60,2013-04-17 03:00:00,
2013-04-16 23:05:00,43.0,15.8,30.23,North,0,2.0,8.0,33,0.00,,,-99.99,Weather View 32 v60,2013-04-17 03:05:00,
2013-04-16 23:10:00,42.8,16.3,30.23,North,0,0.0,8.0,34,0.00,,,-99.99,Weather View 32 v60,2013-04-17 03:10:00,
2013-04-16 23:15:00,42.8,17.0,30.23,North,357,0.0,6.0,35,0.00,,,-99.99,Weather View 32 v60,2013-04-17 03:15:00,
2013-04-16 23:20:00,42.4,16.7,30.26,North,0,0.0,6.0,35,0.00,,,-99.99,Weather View 32 v60,2013-04-17 03:20:00,
2013-04-16 23:30:00,42.3,17.2,30.26,North,357,0.0,6.0,36,0.00,,,-99.99,Weather View 32 v60,2013-04-17 03:30:00,
2013-04-16 23:35:00,42.1,17.0,30.26,North,357,0.0,6.0,36,0.00,,,-99.99,Weather View 32 v60,2013-04-17 03:35:00,
2013-04-16 23:40:00,41.9,16.9,30.26,East,81,3.0,6.0,36,0.00,,,-99.99,Weather View 32 v60,2013-04-17 03:40:00,
2013-04-16 23:45:00,41.7,16.7,30.26,NE,46,0.0,5.0,36,0.00,,,-99.99,Weather View 32 v60,2013-04-17 03:45:00,
2013-04-16 23:50:00,41.5,16.5,30.26,NE,50,0.0,5.0,36,0.00,,,-99.99,Weather View 32 v60,2013-04-17 03:50:00,
2013-04-16 23:55:00,41.2,16.2,30.26,NE,48,0.0,5.0,36,0.00,,,-99.99,Weather View 32 v60,2013-04-17 03:55:00,